Total_Precipitation_Accumulation
0.88 0.94 0.93 0.98 1.08 1.36 1.58 1.52 1.34 1.35 1.40 1.37 1.33 1.42 1.57 1.70 1.81 1.93 1.99 2.00 2.03 2.16 2.11 2.06 2.13 2.23 2.46 2.42 2.47 2.44 2.34 2.23 2.17 1.97 1.61 1.52 1.67 1.69 1.58 1.41 1.26 1.18 1.01
0.71 0.77 0.85 0.86 0.95 1.08 1.20 1.22 1.16 1.09 1.07 1.14 1.19 1.22 1.31 1.48 1.60 1.65 1.66 1.70 1.77 1.89 1.95 1.88 1.91 1.97 2.08 2.29 2.39 2.36 2.35 2.29 2.27 2.23 1.89 1.65 1.57 1.60 1.63 1.63 1.41 1.25 1.12
0.64 0.70 0.77 0.80 0.83 0.85 0.86 0.79 0.83 0.86 0.93 1.00 1.12 1.18 1.27 1.35 1.50 1.53 1.51 1.48 1.52 1.60 1.73 1.78 1.82 1.84 1.86 1.98 1.97 2.06 2.16 2.31 2.38 2.31 2.14 1.89 1.72 1.64 1.62 1.60 1.54 1.51 1.33
0.75 0.82 0.87 0.88 0.88 0.88 0.86 0.82 0.81 0.84 0.90 1.02 1.21 1.28 1.29 1.32 1.33 1.39 1.46 1.43 1.33 1.30 1.36 1.40 1.53 1.64 1.67 1.84 1.81 1.82 1.96 2.18 2.43 2.44 2.30 2.06 1.88 1.80 1.72 1.64 1.67 1.60 1.53
0.66 0.78 0.83 0.87 0.88 0.85 0.79 0.77 0.81 0.78 0.77 0.91 1.08 1.24 1.29 1.29 1.26 1.34 1.41 1.43 1.37 1.23 1.18 1.20 1.25 1.38 1.65 1.76 1.71 1.89 2.02 2.06 2.19 2.30 2.29 2.21 2.01 1.83 1.66 1.55 1.59 1.66 1.65
0.55 0.66 0.81 0.88 0.81 0.77 0.70 0.69 0.72 0.71 0.68 0.78 0.92 1.09 1.19 1.18 1.58 1.59 1.42 1.40 1.37 1.24 1.14 1.14 1.10 1.09 1.31 1.59 1.72 1.83 1.96 2.05 2.07 2.07 2.10 2.04 1.96 1.89 1.89 1.81 1.71 1.65 1.60
0.49 0.61 0.81 0.82 0.71 0.66 0.72 0.76 0.73 0.71 0.71 0.76 0.80 0.82 0.92 1.21 1.26 1.06 1.11 1.17 1.28 1.19 1.07 1.00 0.92 0.91 1.05 1.14 1.29 1.39 1.58 1.88 2.07 2.08 1.93 1.82 1.91 1.87 1.86 1.85 1.77 1.71 1.61
0.41 0.51 0.66 0.69 0.67 0.70 0.71 0.69 0.65 0.60 0.59 0.63 0.65 0.70 0.77 0.91 0.91 0.85 0.96 0.92 1.07 1.08 0.99 0.94 0.93 0.93 0.98 1.02 1.15 1.28 1.31 1.39 1.60 1.66 1.63 1.64 1.70 1.83 1.87 1.89 1.93 1.89 1.89
0.28 0.37 0.47 0.50 0.55 0.58 0.57 0.57 0.53 0.50 0.52 0.54 0.58 0.66 0.74 0.74 0.76 0.75 0.81 0.92 1.08 1.06 0.95 0.95 0.94 0.92 1.08 1.13 1.11 1.19 1.30 1.29 1.41 1.57 1.76 1.74 1.61 1.60 1.71 1.77 1.86 1.86 1.85
0.21 0.27 0.35 0.38 0.42 0.44 0.49 0.52 0.52 0.49 0.47 0.47 0.50 0.54 0.63 0.66 0.78 0.66 0.76 0.95 1.06 1.09 1.06 0.97 1.07 1.06 1.16 1.12 1.07 1.21 1.31 1.18 1.10 1.17 1.31 1.36 1.26 1.26 1.43 1.45 1.62 1.72 1.62
0.12 0.17 0.23 0.31 0.38 0.46 0.52 0.53 0.56 0.53 0.48 0.47 0.55 0.56 0.56 0.65 0.78 0.73 0.76 0.86 1.05 1.10 1.12 1.06 0.94 1.00 0.99 1.04 1.12 1.21 1.41 1.27 1.13 1.17 1.26 1.26 1.14 1.11 1.15 1.21 1.34 1.54 1.54
0.07 0.12 0.19 0.27 0.34 0.42 0.52 0.55 0.55 0.55 0.54 0.56 0.57 0.60 0.59 0.58 0.65 0.70 0.71 0.78 0.89 0.94 1.04 1.00 0.92 0.95 0.83 0.83 0.90 1.05 1.33 1.25 1.11 1.13 1.17 1.20 1.14 1.06 1.10 1.10 1.16 1.26 1.34
0.03 0.07 0.12 0.16 0.20 0.25 0.34 0.42 0.48 0.53 0.54 0.55 0.60 0.68 0.70 0.64 0.69 0.79 0.66 0.63 0.69 0.73 0.74 0.83 0.80 0.78 0.73 0.69 0.78 0.90 1.04 1.18 1.19 1.12 1.05 1.05 1.05 1.04 1.09 1.05 1.04 1.11 1.12
0.02 0.04 0.06 0.07 0.08 0.11 0.20 0.29 0.36 0.44 0.50 0.58 0.64 0.73 0.81 0.77 0.70 0.66 0.59 0.56 0.58 0.56 0.50 0.50 0.52 0.57 0.58 0.60 0.65 0.72 0.86 1.06 1.18 1.11 0.99 1.00 1.02 1.01 1.02 0.95 0.96 1.02 1.04
0.02 0.02 0.03 0.05 0.07 0.09 0.15 0.23 0.28 0.36 0.39 0.44 0.55 0.67 0.73 0.72 0.71 0.79 0.77 0.73 0.69 0.67 0.61 0.53 0.49 0.53 0.59 0.64 0.65 0.66 0.74 0.88 0.97 0.96 0.90 0.86 0.91 0.96 0.96 0.90 0.86 0.88 0.91
0.07 0.03 0.03 0.05 0.07 0.09 0.12 0.14 0.14 0.17 0.18 0.22 0.29 0.35 0.41 0.44 0.46 0.45 0.52 0.59 0.59 0.58 0.69 0.73 0.69 0.71 0.69 0.66 0.67 0.63 0.60 0.66 0.78 0.84 0.85 0.80 0.78 0.83 0.89 0.88 0.86 0.86 0.87
0.15 0.11 0.08 0.06 0.07 0.08 0.09 0.12 0.13 0.09 0.07 0.09 0.11 0.18 0.26 0.28 0.27 0.28 0.32 0.40 0.48 0.52 0.67 0.69 0.62 0.57 0.55 0.52 0.54 0.54 0.54 0.54 0.59 0.69 0.74 0.75 0.72 0.74 0.83 0.88 0.88 0.90 0.91
0.04 0.04 0.06 0.09 0.07 0.06 0.10 0.16 0.22 0.24 0.19 0.11 0.07 0.10 0.16 0.21 0.22 0.24 0.28 0.34 0.35 0.38 0.46 0.53 0.50 0.46 0.40 0.38 0.37 0.36 0.40 0.43 0.47 0.53 0.60 0.64 0.69 0.73 0.76 0.82 0.85 0.84 0.85
0.02 0.04 0.10 0.12 0.08 0.08 0.14 0.22 0.24 0.24 0.24 0.17 0.10 0.08 0.09 0.12 0.16 0.18 0.23 0.28 0.27 0.23 0.25 0.33 0.37 0.36 0.32 0.26 0.22 0.21 0.23 0.25 0.30 0.38 0.46 0.52 0.58 0.63 0.68 0.72 0.77 0.82 0.81
0.04 0.04 0.11 0.17 0.12 0.12 0.15 0.16 0.16 0.18 0.17 0.13 0.11 0.10 0.10 0.12 0.14 0.13 0.15 0.18 0.18 0.17 0.18 0.22 0.25 0.25 0.24 0.22 0.19 0.17 0.19 0.21 0.23 0.27 0.35 0.45 0.49 0.52 0.53 0.59 0.66 0.70 0.68
0.08 0.05 0.06 0.18 0.22 0.19 0.18 0.17 0.19 0.20 0.17 0.13 0.09 0.07 0.09 0.11 0.13 0.13 0.14 0.17 0.18 0.18 0.18 0.18 0.19 0.23 0.21 0.19 0.19 0.19 0.20 0.22 0.22 0.25 0.28 0.32 0.38 0.42 0.44 0.45 0.48 0.53 0.59
0.05 0.06 0.07 0.17 0.23 0.19 0.17 0.18 0.20 0.19 0.17 0.15 0.12 0.08 0.08 0.10 0.12 0.14 0.15 0.19 0.21 0.21 0.20 0.18 0.19 0.22 0.23 0.20 0.19 0.21 0.23 0.23 0.23 0.24 0.28 0.30 0.32 0.34 0.36 0.37 0.39 0.42 0.45
0.04 0.05 0.07 0.12 0.13 0.10 0.11 0.15 0.17 0.18 0.17 0.15 0.13 0.12 0.11 0.12 0.12 0.13 0.16 0.22 0.27 0.27 0.22 0.19 0.20 0.24 0.26 0.25 0.24 0.25 0.25 0.25 0.24 0.25 0.29 0.33 0.34 0.36 0.36 0.38 0.38 0.42 0.47
0.05 0.06 0.07 0.09 0.10 0.12 0.15 0.17 0.16 0.16 0.18 0.18 0.16 0.16 0.16 0.14 0.13 0.13 0.16 0.20 0.25 0.26 0.23 0.21 0.21 0.23 0.25 0.28 0.31 0.31 0.30 0.29 0.26 0.24 0.26 0.30 0.33 0.34 0.35 0.37 0.40 0.42 0.46
0.07 0.06 0.07 0.09 0.10 0.12 0.14 0.15 0.16 0.17 0.19 0.21 0.22 0.19 0.19 0.18 0.17 0.15 0.14 0.17 0.20 0.20 0.21 0.21 0.22 0.26 0.28 0.28 0.30 0.34 0.42 0.42 0.34 0.30 0.28 0.29 0.32 0.35 0.37 0.40 0.42 0.46 0.50
0.07 0.06 0.07 0.10 0.13 0.14 0.15 0.16 0.17 0.18 0.20 0.22 0.24 0.25 0.24 0.22 0.20 0.18 0.18 0.19 0.18 0.19 0.22 0.24 0.25 0.27 0.30 0.29 0.26 0.27 0.32 0.32 0.32 0.32 0.29 0.29 0.31 0.35 0.40 0.43 0.46 0.51 0.56